Location: Melbourne
(37.8170°S, 144.9670°E)
Time: 22:26:30
(UTC+10:00)

Daily predictions for brighter satellites

Satellite Brightness Start Highest point End
(mag) Time Altitude Azimuth Time Altitude Azimuth Time Altitude Azimuth
Cosmos 1464 Rocket 4.3 17:27:25 10° NNE 17:33:33 50° E 17:39:44 10° SSE
Ariane Rocket 3.2 17:30:41 10° S 17:35:51 81° WSW 17:40:57 10° NNW
Cosmos 839 Rocket 4.2 17:30:01 10° NNW 17:36:02 58° ENE 17:42:19 10° SE
ATLAS 5 CENTAUR R/B 4.3 17:31:41 10° SW 17:36:06 29° WNW 17:40:16 10° N
Cosmos 2082 Rocket 3.9 17:31:24 10° SW 17:36:38 39° WNW 17:41:49 10° N
Meteor 1-29 4.0 17:33:53 10° NE 17:36:48 26° ESE 17:39:44 10° SSE
SKYMED 2 3.6 17:37:57 10° NNE 17:42:19 90° ENE 17:46:46 10° SSW
USA 229 DEB 3.8 17:35:25 10° SSW 17:42:27 62° SE 17:49:19 10° NE
USA 229 3.8 17:35:32 10° SSW 17:42:33 61° SE 17:49:25 10° NE
SMAP 4.5 17:40:59 10° SE 17:44:23 19° E 17:47:45 10° NE
IRS-1A Rocket 4.5 17:38:44 10° SSE 17:44:41 63° ENE 17:50:31 10° N
ADEOS Rocket 4.4 17:40:08 10° S 17:47:45 54° WSW 17:55:01 10° NW
IDEFIX/ARIANE 42P 4.3 17:47:39 10° ESE 17:50:13 14° E 17:52:46 10° ENE
Cosmos 1842 3.5 17:52:00 10° S 17:56:00 77° W 17:59:56 10° N
Cosmos 1503 Rocket 4.5 17:51:54 10° SSW 17:57:19 70° WNW 18:02:39 10° N
MOS 1 Rocket 3.6 17:55:38 10° S 18:00:01 64° WSW 18:04:17 10° NNW
Cosmos 1666 3.6 17:58:51 10° NNW 18:02:32 51° W 18:06:18 10° S
NOSS 3-1 (A) 4.5 17:57:32 10° SSW 18:02:50 25° SE 18:07:21 11° E
CSL-04 Debris 4.4 17:57:52 10° SSE 18:03:28 81° WSW 18:08:59 10° NNW
YAOGAN 1 3.2 18:01:10 10° SSE 18:05:15 36° E 18:09:16 10° NNE
Cosmos 1943 Rocket 3.1 18:01:38 10° NNE 18:06:28 30° ENE 18:10:34 14° SE
Cosmos 2034 Rocket 3.9 18:05:39 10° N 18:11:48 76° E 18:18:02 10° S
PSLV R/B 4.2 18:16:00 10° NW 18:19:14 37° NNE 18:20:56 22° E
ATLAS 2AS CENTAUR R/B 4.0 18:20:10 10° S 18:23:23 14° SE 18:23:42 14° SE
SPOT 3 Rocket 3.5 18:19:57 10° SSE 18:25:14 88° ENE 18:30:26 10° NNW
PAYLOAD A 4.2 18:21:05 10° SSE 18:26:31 57° E 18:31:46 10° N
Meteor 1-28 Rocket 3.2 18:26:59 10° N 18:30:46 85° WNW 18:34:39 10° SSW
Meteor 1-24 Rocket 4.3 18:25:55 10° S 18:31:36 39° ESE 18:37:09 10° NE
Cosmos 1707 3.0 18:28:47 10° S 18:32:38 44° E 18:36:25 10° NNE
deb Kosmos-1763 4.1 18:33:35 10° SSW 18:37:28 64° ESE 18:41:17 10° NNE
CZ-4 R/B 1.9 18:34:15 10° S 18:38:16 58° WSW 18:42:11 10° NNW
Cosmos 1340 3.8 18:35:00 10° SSW 18:38:41 45° W 18:42:21 10° NNW
CZ-2C R/B 2.6 18:35:33 17° SSE 18:39:21 48° E 18:44:04 10° N
Cosmos 2263 4.4 18:34:11 10° NNW 18:39:58 77° WSW 18:45:32 12° SSE
Helios 1B rocket 4.3 18:36:47 10° NNW 18:40:35 34° W 18:44:28 10° SSW
Orbus 7S? 3.2 18:38:11 10° SSW 18:40:31 42° SSE 18:40:31 42° SSE
USA 81 4.3 18:40:49 10° NNE 18:45:50 45° E 18:49:00 22° SSE
Cosmos 2369 Rocket 3.2 18:45:14 10° NW 18:50:34 44° WSW 18:55:59 10° S
NOSS 3-1 (C) 3.3 18:45:57 10° SSW 18:52:22 63° SE 18:56:58 17° NE
Cosmos 1833 4.3 18:48:46 10° SSW 18:54:31 56° ESE 19:00:11 10° NE
Meteor 2-5 Rocket 4.2 18:55:04 10° SSW 19:01:01 68° W 19:06:45 10° N
Cosmos 1656 Rocket 3.9 19:00:48 10° N 19:05:47 44° ENE 19:05:47 44° ENE
USA 215 4.2 19:09:16 21° SSE 19:13:09 39° SSW 19:19:09 10° W
Cosmos 968 Rocket 3.8 19:11:30 10° SSW 19:16:38 66° WNW 19:21:42 10° N
Cosmos 1570 Rocket 3.8 19:13:39 10° N 19:18:53 73° ENE 19:19:09 71° E
Cosmos 2279 Rocket 4.0 19:13:20 10° NNE 19:19:24 55° E 19:19:24 55° E
Cosmos 2208 Rocket 3.9 19:14:42 10° N 19:20:05 70° ENE 19:20:18 69° E
SMAP 4.4 19:17:27 10° S 19:21:49 38° WSW 19:26:09 10° NW
Meteor 1-22 Rocket 4.4 19:17:26 10° NNW 19:23:24 74° W 19:27:26 21° S
Atlas Centaur 2 3.6 19:22:12 10° NNW 19:24:42 19° N 19:24:42 19° N
IDEFIX/ARIANE 42P 2.9 19:27:48 32° S 19:30:15 66° WSW 19:35:28 10° NNW
Cosmos 1634 Rocket 4.3 19:23:56 10° NNW 19:30:15 70° W 19:36:40 10° S
Cosmos 1627 Rocket 4.4 19:30:47 10° S 19:37:00 82° W 19:43:08 10° N
Cosmos 2219 4.3 19:40:22 10° SSW 19:43:25 33° SSW 19:43:25 33° SSW
MSX 3.9 19:47:02 74° SW 19:47:17 76° WSW 19:53:02 10° NNW
Cosmos 1943 Rocket 3.5 19:44:52 10° NW 19:50:04 36° WSW 19:52:08 27° SSW
NOSS 3-1 (A) 3.7 19:48:00 10° SW 19:54:14 61° WNW 19:54:54 57° NNW
ATLAS 2AS CENTAUR R/B 4.2 20:09:11 10° SSW 20:11:11 22° SSW 20:11:11 22° SSW
ATLAS CENTAUR R/B 4.4 19:51:09 10° NNW 20:15:43 67° NE 20:16:05 67° ENE
VEP-3 4.5 20:24:19 10° WNW 20:31:00 23° NNW 20:31:21 23° NNW
